Date,TemperatureHighF,TemperatureAvgF,TemperatureLowF,DewpointHighF,DewpointAvgF,DewpointLowF,HumidityHigh,HumidityAvg,HumidityLow,PressureMaxIn,PressureMinIn,WindSpeedMaxMPH,WindSpeedAvgMPH,GustSpeedMaxMPH,PrecipitationSumIn
2013-10-1,72.0,59.6,51.0,63.0,56.1,51.0,99,89,62,30.32,30.20,2,0,3,0.00
2013-10-2,72.7,61.0,54.4,64.0,57.8,54.0,98,90,61,30.33,30.21,3,0,4,0.00
2013-10-3,75.0,62.7,57.4,65.0,59.5,56.0,97,90,65,30.28,30.18,2,0,3,0.00
2013-10-4,72.7,62.4,55.0,66.0,59.6,55.0,99,91,73,30.31,30.22,3,1,3,0.00
2013-10-5,77.7,64.0,56.0,69.0,60.8,56.0,99,90,70,30.29,30.16,2,0,5,0.00
2013-10-6,71.3,63.7,58.7,64.0,60.3,58.0,97,89,69,30.18,30.00,2,0,6,0.10
2013-10-7,69.3,59.1,49.0,63.0,57.2,47.0,98,93,78,30.13,29.91,3,0,7,1.33
2013-10-8,69.1,54.6,46.3,59.0,50.5,46.0,98,87,64,30.32,30.13,4,1,5,0.00
2013-10-9,71.2,56.2,46.5,61.0,52.2,45.0,95,87,67,30.35,30.24,2,0,3,0.00
2013-10-10,68.7,56.5,49.5,57.0,52.8,49.0,99,88,65,30.27,30.16,3,0,3,0.00
2013-10-11,69.6,56.4,46.9,59.0,51.9,46.0,99,86,59,30.23,30.12,2,0,3,0.00
2013-10-12,71.4,58.3,49.1,61.0,54.5,49.0,99,88,66,30.26,30.16,2,0,4,0.00
2013-10-13,67.1,60.3,55.9,61.0,57.2,54.0,96,89,77,30.33,30.25,2,0,2,0.00
2013-10-14,65.6,59.7,55.6,61.0,56.9,54.0,97,91,81,30.36,30.25,2,0,5,0.00
2013-10-15,68.5,58.7,51.6,60.0,54.9,51.0,98,88,67,30.30,30.15,2,0,6,0.00
2013-10-16,62.4,56.5,51.5,58.0,54.0,50.0,96,91,83,30.20,30.09,2,0,2,0.00
2013-10-17,62.3,58.4,54.5,61.0,57.7,54.0,99,97,94,30.11,29.98,2,0,6,0.27
2013-10-18,65.2,54.9,48.3,58.0,51.7,47.0,99,89,59,30.16,30.05,2,0,4,0.00
2013-10-19,56.6,51.9,47.1,51.0,47.0,43.0,94,83,66,30.11,30.03,2,0,7,0.00
2013-10-20,61.6,48.2,40.1,49.0,42.3,39.0,97,82,56,30.25,30.11,3,1,4,0.00
2013-10-21,62.6,50.1,41.1,51.0,45.3,40.0,98,85,51,30.32,30.17,4,0,5,0.00
2013-10-22,61.9,53.7,48.7,53.0,48.3,43.0,96,83,62,30.20,29.97,3,0,9,0.00
2013-10-23,49.3,43.2,32.5,44.0,35.8,28.0,86,75,63,30.23,29.92,6,1,11,0.00
2013-10-24,50.7,39.3,29.6,38.0,32.3,27.0,92,77,57,30.41,30.24,5,1,8,0.00
2013-10-25,46.4,36.5,27.3,32.0,25.4,20.0,86,66,39,30.59,30.41,3,1,7,0.00
2013-10-26,52.4,39.3,27.5,38.0,28.4,22.0,89,68,32,30.58,30.33,2,0,4,0.00
2013-10-27,60.4,50.7,43.7,50.0,45.1,36.0,91,81,66,30.33,30.24,4,0,7,0.00
2013-10-28,61.6,52.6,48.1,55.0,49.6,47.0,98,90,69,30.42,30.29,2,0,5,0.14
2013-10-29,62.4,53.7,48.2,52.0,48.7,47.0,98,84,61,30.51,30.41,3,0,4,0.00
2013-10-30,66.0,57.6,52.0,56.0,52.6,48.0,92,84,68,30.46,30.31,2,0,4,0.00
2013-10-31,62.0,59.2,55.7,58.0,54.3,51.0,92,84,74,30.33,29.95,7,1,13,0.01